This is the latest recevied weather packets stored in our database for station/object KQ4HEI. If no packets are shown the sender has not sent any weather packets the latest 10 day(s).
| Time | Temp. | Humidity | Pressure | Rain* | Wind** | Luminosity | Snow |
|---|---|---|---|---|---|---|---|
| 1777713691 | 14.44° C | 99% | 1007.7 hPa | 1.02 mm | - | - | - |
| 1777713091 | 14.44° C | 99% | 1008 hPa | 0 mm | - | - | - |
| 1777712491 | 14.44° C | 99% | 1007.8 hPa | 2.79 mm | - | - | - |
| 1777711891 | 14.44° C | 99% | 1007.5 hPa | 14.99 mm | - | - | - |
| 1777711291 | 14.44° C | 99% | 1008.7 hPa | 17.02 mm | - | - | - |
| 1777710692 | 14.44° C | 99% | 1008.5 hPa | 24.38 mm | - | - | - |
| 1777710091 | 14.44° C | 99% | 1008.4 hPa | 20.57 mm | - | - | - |
| 1777709492 | 14.44° C | 99% | 1009 hPa | 45.21 mm | - | - | - |
| 1777708891 | 14.44° C | 99% | 1008.6 hPa | 16 mm | - | - | - |
| 1777708292 | 14.44° C | 99% | 1008 hPa | 2.54 mm | - | - | - |
| 1777707692 | 14.44° C | 99% | 1008 hPa | 9.14 mm | - | - | - |
| 1777707092 | 14.44° C | 99% | 1008.7 hPa | 2.79 mm | - | - | - |
| 1777706491 | 14.44° C | 99% | 1008.6 hPa | 1.02 mm | - | - | - |
| 1777705891 | 14.44° C | 99% | 1008.9 hPa | 2.03 mm | - | - | - |
| 1777705291 | 14.44° C | 99% | 1009.1 hPa | 0 mm | - | - | - |
| 1777704691 | 14.44° C | 99% | 1009.4 hPa | 0 mm | - | - | - |
| 1777704092 | 14.44° C | 99% | 1009.1 hPa | 0 mm | - | - | - |
| 1777703491 | 14.44° C | 99% | 1009.1 hPa | 0 mm | - | - | - |
| 1777702891 | 14.44° C | 99% | 1009.4 hPa | 1.02 mm | - | - | - |
| 1777702291 | 14.44° C | 99% | 1009.7 hPa | 0 mm | - | - | - |
| 1777701691 | 14.44° C | 99% | 1010 hPa | 0 mm | - | - | - |
| 1777701091 | 14.44° C | 99% | 1010.3 hPa | 2.54 mm | - | - | - |
| 1777700491 | 14.44° C | 99% | 1010.6 hPa | 6.35 mm | - | - | - |
| 1777699892 | 14.44° C | 99% | 1010.6 hPa | 2.54 mm | - | - | - |
| 1777699292 | 14.44° C | 99% | 1011.2 hPa | 0.25 mm | - | - | - |
* Rain latest hour (hover to see other rain measurements)
** Current wind speed in m/s (hover to see current wind gust speed)